Skip Page Navigation
NASA JPL Caltech
NASA Logo - Jet Propulsion Laboratory + View the NASA Portal
+ Center for Near-Earth Object Studies
JPL Home Earth Solar System Stars & Galaxies Technology
JPL Solar System Dynamics
BODIES ORBITS EPHEMERIDES TOOLS PHYSICAL DATA DISCOVERY FAQ SITE MAP
JPL Small-Body Database Browser
Search: [ help ]  
160293 (2003 DK24)
Classification: Main-belt Asteroid          SPK-ID: 2160293
Ephemeris | Orbit Diagram | Orbital Elements | Mission Design | Physical Parameters | Discovery Circumstances | Close-Approach Data ]

[ show orbit diagram ]
Orbital Elements at Epoch 2459200.5 (2020-Dec-17.0) TDB
Reference: JPL 20 (heliocentric ecliptic J2000)
 Element Value Uncertainty (1-sigma)   Units 
e .2426218230380988 6.8431e-08  
a 2.618591008152472 1.5173e-08 au
q 1.983263683963346 1.8111e-07 au
i 15.52514411596003 4.5515e-06 deg
node 105.6187101546743 2.1485e-05 deg
peri 111.3549140980931 2.4407e-05 deg
M 33.18016693891126 8.8585e-06 deg
tp 2459057.848612159418
(2020-Jul-27.34861216)
3.7836e-05 TDB
period 1547.746872918369
4.24
1.3452e-05
3.683e-08
d
yr
n .2325961733789186 2.0216e-09 deg/d
Q 3.253918332341598 1.8855e-08 au
  Orbit Determination Parameters
   # obs. used (total)      670  
   data-arc span      7735 days (21.18 yr)  
   first obs. used      1999-04-10  
   last obs. used      2020-06-13  
   planetary ephem.      DE441  
   SB-pert. ephem.      SB441-N16  
   condition code      0  
   norm. resid. RMS      .5126  
   source      ORB  
   producer      Otto Matic  
   solution date      2021-Apr-13 20:00:46  

Additional Information
 Earth MOID = 1.03115 au 
 Jupiter MOID = 1.95101 au 
 T_jup = 3.313 
[ show covariance matrix ]

Ephemeris | Orbit Diagram | Orbital Elements | Mission Design | Physical Parameters | Discovery Circumstances | Close-Approach Data ]

Physical Parameter Table
Parameter Symbol Value Units Sigma Reference Notes
absolute magnitude H 15.89   n/a E2021B55  

160293 (2003 DK24)          Discovered 2003-Feb-21 by NEAT at Palomar
Reference: 20070730/Numbers.arcLast Updated: 2007-08-06

[ show close-approach data ]
Ephemeris | Orbit Diagram | Orbital Elements | Mission Design | Physical Parameters | Discovery Circumstances | Close-Approach Data ]
ABOUT SSD CREDITS/AWARDS PRIVACY/COPYRIGHT GLOSSARY LINKS
FirstGov 2021-Apr-20 17:03 UT
(server date/time)  
NASA Home Page
Site Manager:   Ryan S. Park
Webmaster  Alan B. Chamberlin